When you browse on this site, cookies collect data to enhance your experience and personalize the content and advertising you see.
Visit our Privacy Policy to learn more. By continuing to use the site, you agree to this use of cookies and data.
  • en Belgique
  • Liste des pays
  • À 7 jours
  • Température de l'eau
  • Carte satellitaire
  • Carte météo
  • Widgets météo
  • user-avatar
    Se connecter

    Météo par heure à Fier

    Ce jour, 18 Juillet, Jeudi

    Heure Température Précipitation Vent Pression Humidité
    00:00 +22°C° 0 mm 1 m/s 757 mmHg 71%
    01:00 +22°C° 0 mm 1 m/s 757 mmHg 70%
    02:00 +22°C° 0 mm 1 m/s 757 mmHg 69%
    03:00 +21°C° 0 mm 1 m/s 757 mmHg 68%
    04:00 +21°C° 0 mm 1 m/s 757 mmHg 67%
    05:00 +23°C° 0 mm 1 m/s 757 mmHg 62%
    06:00 +24°C° 0 mm 1 m/s 757 mmHg 58%
    07:00 +25°C° 0 mm 1 m/s 757 mmHg 54%
    08:00 +27°C° 0 mm 2 m/s 757 mmHg 50%
    09:00 +28°C° 0 mm 2 m/s 757 mmHg 46%
    10:00 +30°C° 0 mm 2 m/s 758 mmHg 42%
    11:00 +30°C° 0 mm 2 m/s 758 mmHg 43%
    12:00 +31°C° 0 mm 3 m/s 758 mmHg 44%
    13:00 +32°C° 0 mm 4 m/s 757 mmHg 45%
    14:00 +30°C° 0 mm 3 m/s 757 mmHg 48%
    15:00 +30°C° 0 mm 3 m/s 757 mmHg 50%
    16:00 +29°C° 0 mm 3 m/s 757 mmHg 53%
    17:00 +28°C° 0 mm 2 m/s 757 mmHg 58%
    18:00 +27°C° 0 mm 1 m/s 757 mmHg 63%
    19:00 +23°C° 0 mm 0 m/s 757 mmHg 69%
    20:00 +23°C° 0 mm 0 m/s 758 mmHg 70%
    21:00 +24°C° 0 mm 1 m/s 758 mmHg 72%
    22:00 +24°C° 0 mm 1 m/s 759 mmHg 74%
    23:00 +23°C° 0 mm 1 m/s 759 mmHg 74%

    Demain, 19 Juillet, Vendredi

    Heure Température Précipitation Vent Pression Humidité
    00:00 +23°C° 0 mm 1 m/s 759 mmHg 75%
    01:00 +23°C° 0 mm 1 m/s 759 mmHg 75%
    02:00 +22°C° 0 mm 1 m/s 759 mmHg 75%
    03:00 +22°C° 0 mm 1 m/s 759 mmHg 75%
    04:00 +22°C° 0 mm 1 m/s 759 mmHg 75%
    05:00 +23°C° 0 mm 1 m/s 759 mmHg 70%
    06:00 +25°C° 0 mm 1 m/s 759 mmHg 65%
    07:00 +26°C° 0 mm 1 m/s 760 mmHg 60%
    08:00 +27°C° 0 mm 1 m/s 760 mmHg 55%
    09:00 +29°C° 0 mm 2 m/s 760 mmHg 51%
    10:00 +30°C° 0 mm 2 m/s 760 mmHg 46%
    11:00 +30°C° 0 mm 3 m/s 760 mmHg 45%
    12:00 +31°C° 0 mm 3 m/s 760 mmHg 45%
    13:00 +32°C° 0 mm 4 m/s 760 mmHg 44%
    14:00 +32°C° 0 mm 4 m/s 760 mmHg 46%
    15:00 +30°C° 0 mm 3 m/s 760 mmHg 47%
    16:00 +30°C° 0 mm 3 m/s 759 mmHg 48%
    17:00 +28°C° 0 mm 3 m/s 760 mmHg 53%
    18:00 +27°C° 0 mm 2 m/s 760 mmHg 59%
    19:00 +26°C° 0 mm 1 m/s 760 mmHg 64%
    20:00 +25°C° 0 mm 1 m/s 760 mmHg 65%
    21:00 +25°C° 0 mm 1 m/s 761 mmHg 65%
    22:00 +24°C° 0 mm 1 m/s 761 mmHg 66%
    23:00 +24°C° 0 mm 1 m/s 761 mmHg 66%

    Après-demain, 20 Juillet, Samedi

    Heure Température Précipitation Vent Pression Humidité
    00:00 +24°C° 0 mm 1 m/s 761 mmHg 66%
    01:00 +23°C° 0 mm 1 m/s 761 mmHg 67%
    02:00 +23°C° 0 mm 1 m/s 761 mmHg 68%
    03:00 +23°C° 0 mm 1 m/s 761 mmHg 69%
    04:00 +23°C° 0 mm 1 m/s 761 mmHg 70%
    05:00 +24°C° 0 mm 1 m/s 761 mmHg 65%
    06:00 +25°C° 0 mm 1 m/s 761 mmHg 61%
    07:00 +27°C° 0 mm 1 m/s 761 mmHg 57%
    08:00 +28°C° 0 mm 2 m/s 761 mmHg 52%
    09:00 +29°C° 0 mm 2 m/s 761 mmHg 47%
    10:00 +31°C° 0 mm 3 m/s 762 mmHg 42%
    11:00 +32°C° 0 mm 4 m/s 762 mmHg 42%
    12:00 +33°C° 0 mm 4 m/s 762 mmHg 42%
    13:00 +33°C° 0 mm 5 m/s 762 mmHg 41%
    14:00 +33°C° 0 mm 4 m/s 761 mmHg 43%
    15:00 +32°C° 0 mm 4 m/s 761 mmHg 44%
    16:00 +32°C° 0 mm 4 m/s 761 mmHg 45%
    17:00 +29°C° 0 mm 3 m/s 761 mmHg 52%
    18:00 +27°C° 0 mm 2 m/s 762 mmHg 58%
    19:00 +26°C° 0 mm 1 m/s 762 mmHg 65%
    20:00 +25°C° 0 mm 1 m/s 762 mmHg 66%
    21:00 +25°C° 0 mm 1 m/s 762 mmHg 66%
    22:00 +24°C° 0 mm 1 m/s 763 mmHg 67%
    23:00 +24°C° 0 mm 1 m/s 762 mmHg 66%

    21 Juillet, Dimanche

    Heure Température Précipitation Vent Pression Humidité
    00:00 +24°C° 0 mm 1 m/s 762 mmHg 66%
    01:00 +24°C° 0 mm 1 m/s 762 mmHg 65%
    02:00 +24°C° 0 mm 1 m/s 762 mmHg 66%
    03:00 +24°C° 0 mm 1 m/s 762 mmHg 66%
    04:00 +23°C° 0 mm 1 m/s 762 mmHg 67%
    05:00 +25°C° 0 mm 1 m/s 762 mmHg 63%
    06:00 +26°C° 0 mm 1 m/s 762 mmHg 59%
    07:00 +28°C° 0 mm 1 m/s 762 mmHg 54%
    08:00 +29°C° 0 mm 2 m/s 763 mmHg 51%
    09:00 +31°C° 0 mm 2 m/s 763 mmHg 47%
    10:00 +33°C° 0 mm 3 m/s 763 mmHg 44%
    11:00 +34°C° 0 mm 3 m/s 763 mmHg 44%
    12:00 +34°C° 0 mm 4 m/s 762 mmHg 43%
    13:00 +34°C° 0 mm 5 m/s 762 mmHg 43%
    14:00 +34°C° 0 mm 4 m/s 762 mmHg 44%
    15:00 +33°C° 0 mm 4 m/s 762 mmHg 46%
    16:00 +33°C° 0 mm 4 m/s 762 mmHg 48%
    17:00 +30°C° 0 mm 3 m/s 762 mmHg 53%
    18:00 +29°C° 0 mm 2 m/s 762 mmHg 58%
    19:00 +27°C° 0 mm 2 m/s 762 mmHg 63%
    20:00 +27°C° 0 mm 1 m/s 762 mmHg 65%
    21:00 +26°C° 0 mm 1 m/s 762 mmHg 67%
    22:00 +26°C° 0 mm 1 m/s 763 mmHg 68%
    23:00 +26°C° 0 mm 1 m/s 762 mmHg 68%

    22 Juillet, Lundi

    Heure Température Précipitation Vent Pression Humidité
    00:00 +25°C° 0 mm 1 m/s 762 mmHg 67%
    01:00 +25°C° 0 mm 1 m/s 762 mmHg 67%
    02:00 +25°C° 0 mm 1 m/s 762 mmHg 67%
    03:00 +25°C° 0 mm 1 m/s 762 mmHg 66%
    04:00 +25°C° 0 mm 1 m/s 762 mmHg 66%
    05:00 +26°C° 0 mm 1 m/s 762 mmHg 61%
    06:00 +28°C° 0 mm 1 m/s 762 mmHg 56%
    07:00 +29°C° 0 mm 1 m/s 762 mmHg 50%
    08:00 +31°C° 0 mm 2 m/s 762 mmHg 45%
    09:00 +34°C° 0 mm 2 m/s 762 mmHg 40%
    10:00 +36°C° 0 mm 3 m/s 762 mmHg 35%
    11:00 +36°C° 0 mm 3 m/s 762 mmHg 35%
    12:00 +36°C° 0 mm 4 m/s 761 mmHg 35%
    13:00 +37°C° 0 mm 5 m/s 761 mmHg 35%
    14:00 +36°C° 0 mm 5 m/s 761 mmHg 39%
    15:00 +35°C° 0 mm 5 m/s 760 mmHg 42%
    16:00 +34°C° 0 mm 5 m/s 760 mmHg 46%
    17:00 +32°C° 0 mm 4 m/s 760 mmHg 52%
    18:00 +30°C° 0 mm 3 m/s 760 mmHg 58%
    19:00 +28°C° 0 mm 2 m/s 760 mmHg 64%
    20:00 +28°C° 0 mm 2 m/s 760 mmHg 65%
    21:00 +27°C° 0 mm 1 m/s 760 mmHg 66%
    22:00 +26°C° 0 mm 1 m/s 761 mmHg 68%
    23:00 +26°C° 0 mm 1 m/s 760 mmHg 67%

    23 Juillet, Mardi

    Heure Température Précipitation Vent Pression Humidité
    00:00 +26°C° 0 mm 1 m/s 760 mmHg 66%
    01:00 +26°C° 0 mm 1 m/s 760 mmHg 65%
    02:00 +26°C° 0 mm 1 m/s 760 mmHg 63%
    03:00 +26°C° 0 mm 1 m/s 759 mmHg 62%
    04:00 +26°C° 0 mm 1 m/s 759 mmHg 60%
    05:00 +27°C° 0 mm 1 m/s 759 mmHg 55%
    06:00 +29°C° 0 mm 2 m/s 759 mmHg 50%
    07:00 +30°C° 0 mm 2 m/s 759 mmHg 45%
    08:00 +32°C° 0 mm 2 m/s 759 mmHg 42%
    09:00 +35°C° 0 mm 3 m/s 759 mmHg 39%
    10:00 +36°C° 0 mm 3 m/s 759 mmHg 36%
    11:00 +36°C° 0 mm 4 m/s 759 mmHg 37%
    12:00 +36°C° 0 mm 5 m/s 759 mmHg 38%
    13:00 +36°C° 0 mm 6 m/s 758 mmHg 39%
    14:00 +36°C° 0 mm 5 m/s 758 mmHg 41%
    15:00 +35°C° 0 mm 5 m/s 758 mmHg 44%
    16:00 +34°C° 0 mm 4 m/s 757 mmHg 47%
    17:00 +33°C° 0 mm 3 m/s 757 mmHg 53%
    18:00 +30°C° 0 mm 3 m/s 757 mmHg 59%
    19:00 +28°C° 0 mm 2 m/s 757 mmHg 66%
    20:00 +28°C° 0 mm 1 m/s 758 mmHg 67%
    21:00 +27°C° 0 mm 1 m/s 758 mmHg 68%
    22:00 +27°C° 0 mm 1 m/s 758 mmHg 69%
    23:00 +26°C° 0 mm 1 m/s 758 mmHg 68%
    Voir plus